Weather History for Nuiqsut, AK

Change the Weather History Date:

Friday, February 1, 2013

  Actual Average (PAKU) Record (PAKU)
Temperature  
Mean Temperature -22 °F -  
Max Temperature -18 °F -12 °F 23 °F (2014)
Min Temperature -27 °F -21 °F -52 °F (2012)
Degree Days  
Heating Degree Days 88    
Moisture  
Dew Point -26 °F    
Average Humidity 78    
Maximum Humidity 84    
Minimum Humidity 76    
Precipitation  
Precipitation 0.00 in - - ()
Sea Level Pressure  
Sea Level Pressure 30.42 in    
Wind  
Wind Speed 10 mph (NE)    
Max Wind Speed 13 mph    
Max Gust Speed -    
Visibility 7 miles    
Events Snow    
Averages and records for this station are not official NWS values.
T = Trace of Precipitation, MM = Missing Value Source: NWS Daily Summary

Daily Weather History Graph

Daily Weather History Graph

Search for Another Location

Airport:

Trip Planner

Search our weather history database for the weather conditions in past years. The results will help you decide how hot, cold, wet, or windy it might be!

Date:

Astronomy

Feb. 01, 2013 Rise Set
Actual Time 10:49 AM AKST 3:47 PM AKST
Civil Twilight 9:23 AM AKST 5:13 PM AKST
Nautical Twilight 8:04 AM AKST 6:32 PM AKST
Astronomical Twilight 6:52 AM AKST 7:44 PM AKST
Moon 12:52 AM AKST (2/1) 9:21 AM AKST (2/1)
Length of Visible Light 7h 49m
Length of Day
4h 57m
Waning Gibbous, 69% of the Moon is Illuminated
Feb 1
Waning Gibbous
Feb 3
Last Quarter
Feb 9
New
Feb 17
First Quarter
Feb 25
Full

Hourly Weather History & Observations

Time (AKST) Temp. Windchill Dew Point Humidity Pressure Visibility Wind Dir Wind Speed Gust Speed Precip Events Conditions
12:22 AM -18.4 °F -39.1 °F -23.8 °F 76% 30.30 in 2.5 mi ENE 10.4 mph - N/A Snow Light Snow
12:53 AM -18.0 °F -38.6 °F -23.1 °F 78% 30.32 in 2.5 mi NE 10.4 mph - N/A Snow Light Snow
1:01 AM -18.4 °F -37.9 °F -23.8 °F 76% 30.31 in 3.0 mi ENE 9.2 mph - N/A Snow Light Snow
3:17 AM -18.4 °F -37.9 °F -23.8 °F 76% 30.35 in 2.5 mi NE 9.2 mph - N/A Snow Light Snow
3:38 AM -18.4 °F - -23.8 °F 76% 30.35 in - North - - N/A   Unknown
3:53 AM -18.0 °F - -23.1 °F 78% 30.36 in 8.0 mi North - - N/A   Unknown
4:53 AM -18.0 °F - -23.1 °F 78% 30.38 in 8.0 mi North - - N/A   Overcast
5:53 AM -18.0 °F - -23.1 °F 78% 30.39 in 4.0 mi North - - N/A   Overcast
6:37 AM -18.4 °F - -23.8 °F 76% 30.39 in 5.0 mi North - - N/A   Haze
6:49 AM -18.4 °F - -23.8 °F 76% 30.39 in 7.0 mi North - - N/A   Overcast
6:53 AM -18.0 °F - -23.1 °F 78% 30.40 in 9.0 mi North - - N/A   Overcast
7:22 AM -18.4 °F - -23.8 °F 76% 30.40 in 5.0 mi North - - N/A Snow Light Snow
7:50 AM -18.4 °F - -23.8 °F 76% 30.40 in 10.0 mi North - - N/A   Overcast
7:53 AM -18.9 °F - -23.1 °F 81% 30.41 in 10.0 mi North - - N/A   Overcast
8:53 AM -18.0 °F - -23.1 °F 78% 30.43 in 6.0 mi North - - N/A   Haze
9:53 AM -18.0 °F -36.1 °F -23.1 °F 78% 30.44 in 9.0 mi NE 8.1 mph - N/A   Unknown
10:53 AM -18.0 °F -36.1 °F -22.0 °F 82% 30.46 in 1.8 mi NE 8.1 mph - N/A Snow Light Snow
11:03 AM -18.4 °F -36.6 °F -22.0 °F 84% 30.45 in 3.0 mi NE 8.1 mph - N/A   Overcast
12:53 PM -20.0 °F -39.9 °F -25.1 °F 78% 30.48 in 10.0 mi NE 9.2 mph - N/A   Mostly Cloudy
1:53 PM -22.0 °F -43.6 °F -27.0 °F 77% 30.49 in 10.0 mi NE 10.4 mph - N/A   Clear
2:53 PM -24.0 °F -43.4 °F -27.9 °F 82% 30.50 in 10.0 mi NE 8.1 mph - N/A   Clear
3:53 PM -24.0 °F - -29.0 °F 77% 30.50 in - North - - N/A   Unknown
4:53 PM -26.0 °F -45.8 °F -29.9 °F 81% 30.50 in 10.0 mi NE 8.1 mph - N/A   Clear
5:53 PM -27.0 °F -49.8 °F -31.0 °F 81% 30.48 in 10.0 mi NE 10.4 mph - N/A   Clear
6:53 PM -27.9 °F -49.6 °F -32.1 °F 81% 30.48 in 9.0 mi ENE 9.2 mph - N/A   Clear
7:53 PM -27.9 °F - -32.1 °F 81% 30.47 in 10.0 mi North - - N/A   Clear
8:53 PM -27.9 °F - -33.0 °F 77% 30.46 in 10.0 mi North - - N/A   Clear
9:53 PM -27.9 °F - -33.0 °F 77% 30.46 in - North - - N/A   Clear
10:53 PM -27.9 °F -49.6 °F -33.0 °F 77% 30.45 in 9.0 mi NE 9.2 mph - N/A   Clear
11:53 PM -27.9 °F -53.2 °F -33.0 °F 77% 30.42 in 4.0 mi NE 12.7 mph - N/A   Haze